TimeCDT,TemperatureF,Dew PointF,Humidity,Sea Level PressureIn,VisibilityMPH,Wind Direction,Wind SpeedMPH,Gust SpeedMPH,PrecipitationIn,Events,Conditions,WindDirDegrees,DateUTC
12:53 AM,73.9,66.0,76,29.86,10.0,South,12.7,-,N/A,,Clear,170,2013-07-22 05:53:00
1:53 AM,73.0,66.0,79,29.85,10.0,South,8.1,-,N/A,,Clear,170,2013-07-22 06:53:00
2:53 AM,72.0,66.0,81,29.84,10.0,SSE,5.8,-,N/A,,Clear,150,2013-07-22 07:53:00
3:53 AM,71.1,66.0,84,29.84,10.0,SSE,6.9,-,N/A,,Clear,160,2013-07-22 08:53:00
4:53 AM,71.1,64.9,81,29.84,10.0,South,9.2,-,N/A,,Clear,180,2013-07-22 09:53:00
5:53 AM,70.0,64.0,81,29.84,10.0,SE,4.6,-,N/A,,Clear,140,2013-07-22 10:53:00
6:53 AM,70.0,64.0,81,29.85,10.0,SSE,8.1,-,N/A,,Clear,150,2013-07-22 11:53:00
7:53 AM,71.1,64.9,81,29.86,10.0,SSE,9.2,-,N/A,,Clear,160,2013-07-22 12:53:00
8:53 AM,75.0,64.9,71,29.87,10.0,SSE,10.4,-,N/A,,Clear,160,2013-07-22 13:53:00
9:53 AM,79.0,66.0,64,29.88,10.0,South,10.4,-,N/A,,Clear,170,2013-07-22 14:53:00
10:53 AM,82.0,64.9,56,29.88,10.0,SSE,10.4,16.1,N/A,,Clear,150,2013-07-22 15:53:00
11:53 AM,84.9,64.9,51,29.87,10.0,SSE,8.1,17.3,N/A,,Clear,150,2013-07-22 16:53:00
12:53 PM,86.0,64.0,48,29.86,10.0,Calm,Calm,-,N/A,,Mostly Cloudy,0,2013-07-22 17:53:00
1:53 PM,84.9,64.9,51,29.85,10.0,NNW,6.9,-,0.00,,Mostly Cloudy,330,2013-07-22 18:53:00
2:53 PM,89.1,68.0,50,29.82,10.0,North,6.9,-,0.04,,Partly Cloudy,10,2013-07-22 19:53:00
3:53 PM,89.1,66.0,46,29.81,10.0,NE,10.4,-,0.00,Rain,Light Rain,50,2013-07-22 20:53:00
4:53 PM,87.1,64.0,46,29.79,10.0,SSE,16.1,20.7,0.01,,Mostly Cloudy,150,2013-07-22 21:53:00
5:53 PM,84.0,66.0,55,29.79,10.0,NE,10.4,-,N/A,,Clear,40,2013-07-22 22:53:00
6:53 PM,88.0,63.0,43,29.77,10.0,SE,12.7,19.6,N/A,,Clear,140,2013-07-22 23:53:00
7:53 PM,84.9,64.9,51,29.79,10.0,SSE,16.1,26.5,N/A,,Clear,150,2013-07-23 00:53:00
8:30 PM,78.8,66.2,65,29.98,10.0,WSW,12.7,19.6,N/A,,Mostly Cloudy,240,2013-07-23 01:30:00
8:53 PM,78.1,61.0,56,29.85,10.0,SW,12.7,-,N/A,,Mostly Cloudy,220,2013-07-23 01:53:00
9:53 PM,79.0,66.0,64,29.83,10.0,SSE,5.8,-,N/A,,Clear,150,2013-07-23 02:53:00
10:53 PM,78.1,68.0,71,29.85,10.0,SSE,11.5,-,N/A,,Clear,160,2013-07-23 03:53:00
11:53 PM,77.0,66.9,71,29.86,10.0,SSE,16.1,-,N/A,,Clear,160,2013-07-23 04:53:00